This is the latest recevied weather packets stored in our database for station/object OK2ILA-6. If no packets are shown the sender has not sent any weather packets the latest 10 day(s).
| Time | Temp. | Humidity | Pressure | Rain* | Wind** | Luminosity | Snow |
|---|---|---|---|---|---|---|---|
| 1777744802 | 18.89° C | 42% | 1019 hPa | - | - | - | - |
| 1777744202 | 20° C | 40% | 1019 hPa | - | - | - | - |
| 1777743603 | 20.56° C | 38% | 1019.2 hPa | - | - | - | - |
| 1777743003 | 21.11° C | 36% | 1019 hPa | - | - | - | - |
| 1777742403 | 21.11° C | 35% | 1019 hPa | - | - | - | - |
| 1777741802 | 21.67° C | 34% | 1019.2 hPa | - | - | - | - |
| 1777741202 | 22.22° C | 34% | 1019.2 hPa | - | - | - | - |
| 1777740603 | 22.22° C | 34% | 1019.3 hPa | - | - | - | - |
| 1777740003 | 22.22° C | 32% | 1019.4 hPa | - | - | - | - |
| 1777739403 | 22.78° C | 34% | 1019.5 hPa | - | - | - | - |
| 1777738802 | 22.78° C | 32% | 1019.6 hPa | - | - | - | - |
| 1777738202 | 22.22° C | 32% | 1019.6 hPa | - | - | - | - |
| 1777737603 | 22.78° C | 30% | 1019.9 hPa | - | - | - | - |
| 1777737003 | 22.78° C | 30% | 1020 hPa | - | - | - | - |
| 1777736403 | 23.33° C | 30% | 1020.1 hPa | - | - | - | - |
| 1777735802 | 23.33° C | 31% | 1020.1 hPa | - | - | - | - |
| 1777735202 | 23.33° C | 31% | 1020.2 hPa | - | - | - | - |
| 1777734603 | 23.33° C | 30% | 1020.4 hPa | - | - | - | - |
| 1777734003 | 23.33° C | 28% | 1020.4 hPa | - | - | - | - |
| 1777733403 | 23.33° C | 28% | 1020.6 hPa | - | - | - | - |
| 1777732802 | 23.33° C | 24% | 1020.6 hPa | - | - | - | - |
| 1777732202 | 23.33° C | 28% | 1020.9 hPa | - | - | - | - |
| 1777731603 | 23.33° C | 26% | 1020.9 hPa | - | - | - | - |
| 1777731003 | 23.33° C | 26% | 1021 hPa | - | - | - | - |
| 1777730403 | 23.33° C | 27% | 1021 hPa | - | - | - | - |
* Rain since midnight (hover to see other rain measurements)
** Current wind speed in m/s (hover to see current wind gust speed)